2020-05-03 00:07:21 r, 18.21m,0000000004Hz,0000100718c,0000000.219s, 017.7C,00002195
2020-05-03 00:17:21 r, 18.24m,0000000005Hz,0000102703c,0000000.223s, 017.7C,00002195
2020-05-03 00:27:21 r, 18.26m,0000000004Hz,0000104268c,0000000.226s, 017.4C,00002195
2020-05-03 00:37:21 r, 17.77m,0000000007Hz,0000066998c,0000000.145s, 017.4C,00002195
2020-05-03 00:47:21 r, 18.23m,0000000005Hz,0000101820c,0000000.221s, 017.4C,00002195
2020-05-03 00:57:21 r, 18.27m,0000000005Hz,0000105600c,0000000.229s, 017.4C,00002195
2020-05-03 01:07:21 r, 18.30m,0000000004Hz,0000108369c,0000000.235s, 017.0C,00002195
2020-05-03 01:17:21 r, 18.38m,0000000004Hz,0000116039c,0000000.252s, 017.0C,00002195
2020-05-03 01:27:21 r, 17.04m,0000000013Hz,0000034258c,0000000.074s, 017.0C,00002195
2020-05-03 01:37:21 r, 16.76m,0000000019Hz,0000026285c,0000000.057s, 017.0C,00002195
2020-05-03 01:47:21 r, 16.21m,0000000028Hz,0000015824c,0000000.034s, 017.0C,00002195
2020-05-03 01:57:21 r, 16.82m,0000000017Hz,0000027783c,0000000.060s, 017.4C,00002195
2020-05-03 02:07:21 r, 15.69m,0000000047Hz,0000009793c,0000000.021s, 017.4C,00002195
2020-05-03 02:17:21 r, 15.87m,0000000041Hz,0000011579c,0000000.025s, 017.4C,00002195
2020-05-03 02:27:21 r, 16.62m,0000000020Hz,0000023053c,0000000.050s, 017.4C,00002195
2020-05-03 02:37:21 r, 16.51m,0000000022Hz,0000020870c,0000000.045s, 017.7C,00002195
2020-05-03 02:47:21 r, 15.77m,0000000043Hz,0000010680c,0000000.023s, 017.4C,00002195
2020-05-03 02:57:21 r, 15.71m,0000000046Hz,0000010056c,0000000.022s, 017.4C,00002195
2020-05-03 03:07:21 r, 15.76m,0000000043Hz,0000010527c,0000000.023s, 017.4C,00002195
2020-05-03 03:17:21 r, 15.53m,0000000054Hz,0000008573c,0000000.019s, 017.4C,00002195
2020-05-03 03:27:21 r, 15.35m,0000000063Hz,0000007182c,0000000.016s, 017.4C,00002195
2020-05-03 03:37:21 r, 15.75m,0000000044Hz,0000010432c,0000000.023s, 017.4C,00002195
2020-05-03 03:47:21 r, 16.44m,0000000024Hz,0000019817c,0000000.043s, 017.4C,00002195
2020-05-03 03:57:21 r, 15.53m,0000000054Hz,0000008448c,0000000.018s, 017.4C,00002195
2020-05-03 04:07:21 r, 15.45m,0000000059Hz,0000007849c,0000000.017s, 017.0C,00002195
2020-05-03 04:17:21 r, 15.69m,0000000048Hz,0000009909c,0000000.022s, 017.4C,00002195
2020-05-03 04:27:21 r, 15.28m,0000000067Hz,0000006775c,0000000.015s, 017.4C,00002195
2020-05-03 04:37:21 r, 15.38m,0000000062Hz,0000007396c,0000000.016s, 017.4C,00002195
2020-05-03 04:47:21 r, 15.23m,0000000072Hz,0000006418c,0000000.014s, 017.0C,00002195
2020-05-03 04:57:21 r, 15.26m,0000000069Hz,0000006652c,0000000.014s, 017.0C,00002195
2020-05-03 05:07:21 r, 15.18m,0000000075Hz,0000006143c,0000000.013s, 017.0C,00002195
2020-05-03 05:17:21 r, 14.34m,0000000163Hz,0000000000c,0000000.000s, 017.0C,00002195
2020-05-03 05:27:21 r, 13.15m,0000000488Hz,0000000000c,0000000.000s, 017.0C,00002195
2020-05-03 05:37:21 r, 11.42m,0000002403Hz,0000000000c,0000000.000s, 016.7C,00002195
2020-05-03 05:47:21 r, 09.73m,0000011455Hz,0000000000c,0000000.000s, 017.0C,00002195
2020-05-03 05:57:21 r, 08.35m,0000040795Hz,0000000000c,0000000.000s, 017.0C,00002195
2020-05-03 06:07:21 r, 07.54m,0000086256Hz,0000000000c,0000000.000s, 017.0C,00002195
2020-05-03 06:17:21 r, 06.93m,0000151364Hz,0000000000c,0000000.000s, 016.7C,00002195
2020-05-03 06:27:21 r, 06.39m,0000248805Hz,0000000000c,0000000.000s, 016.7C,00002195
2020-05-03 06:37:21 r, 00.00m,0000476090Hz,0000000000c,0000000.000s, 017.0C,00002195
2020-05-03 06:47:21 r, 00.00m,0000510207Hz,0000000000c,0000000.000s, 016.7C,00002195
2020-05-03 06:57:21 r, 00.00m,0000562988Hz,0000000000c,0000000.000s, 017.0C,00002195
2020-05-03 07:07:21 r, 00.00m,0000563028Hz,0000000000c,0000000.000s, 017.4C,00002195
2020-05-03 07:17:21 r, 00.00m,0000563030Hz,0000000000c,0000000.000s, 017.4C,00002195
2020-05-03 07:27:21 r, 00.00m,0000563072Hz,0000000000c,0000000.000s, 017.7C,00002195
2020-05-03 07:37:21 r, 00.00m,0000563179Hz,0000000000c,0000000.000s, 018.0C,00002195
2020-05-03 07:47:21 r, 00.00m,0000563183Hz,0000000000c,0000000.000s, 018.3C,00002195
2020-05-03 07:57:21 r, 00.00m,0000563264Hz,0000000000c,0000000.000s, 018.6C,00002195
2020-05-03 08:07:21 r, 00.00m,0000563268Hz,0000000000c,0000000.000s, 019.0C,00002195
2020-05-03 08:17:21 r, 00.00m,0000563317Hz,0000000000c,0000000.000s, 019.3C,00002195
2020-05-03 08:27:21 r, 00.00m,0000563324Hz,0000000000c,0000000.000s, 019.3C,00002195
2020-05-03 08:37:21 r, 00.00m,0000563470Hz,0000000000c,0000000.000s, 019.6C,00002195
2020-05-03 08:47:21 r, 00.00m,0000563378Hz,0000000000c,0000000.000s, 019.6C,00002195
2020-05-03 08:57:21 r, 00.00m,0000563417Hz,0000000000c,0000000.000s, 019.9C,00002195
2020-05-03 09:07:21 r, 00.00m,0000563448Hz,0000000000c,0000000.000s, 020.3C,00002195
2020-05-03 09:17:21 r, 00.00m,0000563522Hz,0000000000c,0000000.000s, 020.9C,00002195
2020-05-03 09:27:21 r, 00.00m,0000563657Hz,0000000000c,0000000.000s, 021.5C,00002195
2020-05-03 09:37:21 r, 00.00m,0000563694Hz,0000000000c,0000000.000s, 021.9C,00002195
2020-05-03 09:47:21 r, 00.00m,0000563747Hz,0000000000c,0000000.000s, 022.8C,00002195
2020-05-03 09:57:21 r, 00.00m,0000563920Hz,0000000000c,0000000.000s, 023.2C,00002195
2020-05-03 10:07:21 r, 00.00m,0000563946Hz,0000000000c,0000000.000s, 023.5C,00002195
2020-05-03 10:17:21 r, 00.00m,0000564059Hz,0000000000c,0000000.000s, 023.8C,00002195
2020-05-03 10:27:21 r, 00.00m,0000564169Hz,0000000000c,0000000.000s, 024.8C,00002195
2020-05-03 10:37:21 r, 00.00m,0000564044Hz,0000000000c,0000000.000s, 025.1C,00002195
2020-05-03 10:47:21 r, 00.00m,0000564202Hz,0000000000c,0000000.000s, 025.7C,00002195
2020-05-03 10:57:21 r, 00.00m,0000564186Hz,0000000000c,0000000.000s, 026.1C,00002195
2020-05-03 11:07:21 r, 00.00m,0000564440Hz,0000000000c,0000000.000s, 027.3C,00002195
2020-05-03 11:17:21 r, 00.00m,0000564470Hz,0000000000c,0000000.000s, 027.7C,00002195
2020-05-03 11:27:21 r, 00.00m,0000564430Hz,0000000000c,0000000.000s, 027.7C,00002195
2020-05-03 11:37:21 r, 00.00m,0000564408Hz,0000000000c,0000000.000s, 027.7C,00002195
2020-05-03 11:47:21 r, 00.00m,0000564703Hz,0000000000c,0000000.000s, 029.6C,00002195
2020-05-03 11:57:21 r, 00.00m,0000564860Hz,0000000000c,0000000.000s, 031.2C,00002195
2020-05-03 12:07:21 r, 00.00m,0000564852Hz,0000000000c,0000000.000s, 031.9C,00002195
2020-05-03 12:17:21 r, 00.00m,0000565109Hz,0000000000c,0000000.000s, 033.1C,00002195
2020-05-03 12:27:21 r, 00.00m,0000565126Hz,0000000000c,0000000.000s, 033.8C,00002195
2020-05-03 12:37:21 r, 00.00m,0000565088Hz,0000000000c,0000000.000s, 033.8C,00002195
2020-05-03 12:47:21 r, 00.00m,0000565121Hz,0000000000c,0000000.000s, 034.4C,00002195
2020-05-03 12:57:21 r, 00.00m,0000565226Hz,0000000000c,0000000.000s, 034.4C,00002195
2020-05-03 13:07:21 r, 00.00m,0000565169Hz,0000000000c,0000000.000s, 034.8C,00002195
2020-05-03 13:17:21 r, 00.00m,0000565222Hz,0000000000c,0000000.000s, 034.8C,00002195
2020-05-03 13:27:21 r, 00.00m,0000565201Hz,0000000000c,0000000.000s, 035.4C,00002195
2020-05-03 13:37:21 r, 00.00m,0000565283Hz,0000000000c,0000000.000s, 035.4C,00002195
2020-05-03 13:47:21 r, 00.00m,0000565323Hz,0000000000c,0000000.000s, 035.7C,00002195
2020-05-03 13:57:21 r, 00.00m,0000565248Hz,0000000000c,0000000.000s, 035.7C,00002195
2020-05-03 14:07:21 r, 00.00m,0000565280Hz,0000000000c,0000000.000s, 036.0C,00002195
2020-05-03 14:17:21 r, 00.00m,0000565328Hz,0000000000c,0000000.000s, 036.0C,00002195
2020-05-03 14:27:21 r, 00.00m,0000565411Hz,0000000000c,0000000.000s, 036.7C,00002195
2020-05-03 14:37:21 r, 00.00m,0000565350Hz,0000000000c,0000000.000s, 036.7C,00002195
2020-05-03 14:47:21 r, 00.00m,0000565337Hz,0000000000c,0000000.000s, 037.0C,00002195
2020-05-03 14:57:21 r, 00.00m,0000565298Hz,0000000000c,0000000.000s, 037.3C,00002195
2020-05-03 15:07:21 r, 00.00m,0000565340Hz,0000000000c,0000000.000s, 037.3C,00002195
2020-05-03 15:17:21 r, 00.00m,0000565344Hz,0000000000c,0000000.000s, 038.0C,00002195
2020-05-03 15:27:21 r, 00.00m,0000565435Hz,0000000000c,0000000.000s, 038.3C,00002195
2020-05-03 15:37:21 r, 00.00m,0000565423Hz,0000000000c,0000000.000s, 038.3C,00002195
2020-05-03 15:47:21 r, 00.00m,0000565363Hz,0000000000c,0000000.000s, 038.3C,00002195
2020-05-03 15:57:21 r, 00.00m,0000565395Hz,0000000000c,0000000.000s, 038.0C,00002195
2020-05-03 16:07:21 r, 00.00m,0000565379Hz,0000000000c,0000000.000s, 038.3C,00002195
2020-05-03 16:17:21 r, 00.00m,0000565318Hz,0000000000c,0000000.000s, 038.0C,00002195
2020-05-03 16:27:21 r, 00.00m,0000565208Hz,0000000000c,0000000.000s, 037.7C,00002195
2020-05-03 16:37:21 r, 00.00m,0000565124Hz,0000000000c,0000000.000s, 037.3C,00002195
2020-05-03 16:47:21 r, 00.00m,0000565137Hz,0000000000c,0000000.000s, 037.0C,00002195
2020-05-03 16:57:21 r, 00.00m,0000565181Hz,0000000000c,0000000.000s, 037.3C,00002195
2020-05-03 17:07:21 r, 00.00m,0000565169Hz,0000000000c,0000000.000s, 037.7C,00002195
2020-05-03 17:17:21 r, 00.00m,0000565150Hz,0000000000c,0000000.000s, 037.3C,00002195
2020-05-03 17:27:21 r, 00.00m,0000565037Hz,0000000000c,0000000.000s, 037.0C,00002195
2020-05-03 17:37:21 r, 00.00m,0000565044Hz,0000000000c,0000000.000s, 036.4C,00002195
2020-05-03 17:47:21 r, 00.00m,0000564919Hz,0000000000c,0000000.000s, 035.7C,00002195
2020-05-03 17:57:21 r, 00.00m,0000564827Hz,0000000000c,0000000.000s, 035.1C,00002195
2020-05-03 18:07:21 r, 00.00m,0000564802Hz,0000000000c,0000000.000s, 035.1C,00002195
2020-05-03 18:17:21 r, 00.00m,0000564776Hz,0000000000c,0000000.000s, 034.8C,00002195
2020-05-03 18:27:21 r, 00.00m,0000564761Hz,0000000000c,0000000.000s, 034.8C,00002195
2020-05-03 18:37:21 r, 00.00m,0000564701Hz,0000000000c,0000000.000s, 034.1C,00002195
2020-05-03 18:47:21 r, 00.00m,0000564554Hz,0000000000c,0000000.000s, 033.1C,00002195
2020-05-03 18:57:21 r, 00.00m,0000564561Hz,0000000000c,0000000.000s, 032.8C,00002195
2020-05-03 19:07:21 r, 00.00m,0000564466Hz,0000000000c,0000000.000s, 032.2C,00002195
2020-05-03 19:17:21 r, 00.00m,0000564452Hz,0000000000c,0000000.000s, 031.5C,00002195
2020-05-03 19:27:21 r, 00.00m,0000564301Hz,0000000000c,0000000.000s, 030.9C,00002195
2020-05-03 19:37:21 r, 00.00m,0000564235Hz,0000000000c,0000000.000s, 030.2C,00002195
2020-05-03 19:47:21 r, 00.00m,0000536523Hz,0000000000c,0000000.000s, 029.3C,00002195
2020-05-03 19:57:21 r, 00.00m,0000468997Hz,0000000000c,0000000.000s, 028.3C,00002195
2020-05-03 20:07:21 r, 05.88m,0000395102Hz,0000000000c,0000000.000s, 027.3C,00002195
2020-05-03 20:17:21 r, 06.13m,0000314465Hz,0000000000c,0000000.000s, 026.7C,00002195
2020-05-03 20:27:21 r, 06.47m,0000229257Hz,0000000000c,0000000.000s, 026.1C,00002195
2020-05-03 20:37:21 r, 06.97m,0000145377Hz,0000000000c,0000000.000s, 025.1C,00002195
2020-05-03 20:47:21 r, 07.70m,0000074723Hz,0000000000c,0000000.000s, 024.4C,00002195
2020-05-03 20:57:21 r, 08.72m,0000029044Hz,0000000000c,0000000.000s, 024.1C,00002195
2020-05-03 21:07:21 r, 10.10m,0000008122Hz,0000000000c,0000000.000s, 023.5C,00002195
2020-05-03 21:17:21 r, 11.75m,0000001771Hz,0000000000c,0000000.000s, 023.2C,00002195
2020-05-03 21:27:21 r, 13.50m,0000000352Hz,0000000000c,0000000.000s, 022.8C,00002195
2020-05-03 21:37:21 r, 15.29m,0000000069Hz,0000006812c,0000000.015s, 022.5C,00002195
2020-05-03 21:47:21 r, 16.62m,0000000020Hz,0000023273c,0000000.051s, 022.2C,00002195
2020-05-03 21:57:21 r, 17.37m,0000000011Hz,0000045981c,0000000.100s, 021.9C,00002195
2020-05-03 22:07:21 r, 17.74m,0000000007Hz,0000064299c,0000000.140s, 021.5C,00002195
2020-05-03 22:17:21 r, 17.89m,0000000006Hz,0000073872c,0000000.160s, 021.2C,00002195
2020-05-03 22:27:21 r, 17.94m,0000000006Hz,0000077604c,0000000.168s, 021.2C,00002195
2020-05-03 22:37:21 r, 17.94m,0000000006Hz,0000078554c,0000000.170s, 020.9C,00002195
2020-05-03 22:47:24 r, 17.94m,0000000006Hz,0000078755c,0000000.171s, 020.9C,00002195
2020-05-03 22:57:21 r, 17.94m,0000000006Hz,0000078752c,0000000.171s, 020.6C,00002195
2020-05-03 23:07:21 r, 17.96m,0000000006Hz,0000079652c,0000000.173s, 020.6C,00002195
2020-05-03 23:17:21 r, 17.97m,0000000006Hz,0000080660c,0000000.175s, 020.3C,00002195
2020-05-03 23:27:21 r, 17.99m,0000000006Hz,0000081641c,0000000.177s, 020.3C,00002195
2020-05-03 23:37:21 r, 18.01m,0000000005Hz,0000083363c,0000000.181s, 019.9C,00002195
2020-05-03 23:47:21 r, 18.03m,0000000006Hz,0000084538c,0000000.183s, 019.9C,00002195
2020-05-03 23:57:21 r, 18.05m,0000000005Hz,0000086337c,0000000.187s, 019.9C,00002195
